Atlantic City, NJ

2:19 AM EDT on September 18, 2019 (GMT -0400)
Atlantic City International

Weather History for KACY - August, 2019

Change the Weather History Date:

Thursday, August 22, 2019

  Actual Average Record
Temperature  
Mean Temperature 84 °F 74 °F  
Max Temperature 93 °F 83 °F 93 °F (1945)
Min Temperature 75 °F 65 °F 43 °F (1969)
Degree Days  
Heating Degree Days 0 0  
Month to date heating degree days 0 0  
Since 1 June heating degree days 5 27  
Since 1 July heating degree days 0 0  
Cooling Degree Days 19 9  
Month to date cooling degree days 302 223  
Year to date cooling degree days 1123 837  
Since 1 June cooling degree days 1023 773  
Growing Degree Days 34 (Base 50)    
Moisture  
Dew Point 71 °F    
Average Humidity 68    
Maximum Humidity 94    
Minimum Humidity 41    
Precipitation  
Precipitation 0.06 in 0.13 in 0.86 in (2014)
Month to date precipitation 1.56 3.07  
Year to date precipitation 29.68 27.18  
Snow  
Snow 0.00 in 0.00 in 0.00 in ()
Month to date snowfall 0.0 0.0  
Since 1 June snowfall 0.0 0.0  
Since 1 July snowfall 0.0 0.0  
Snow Depth 0.00 in    
Sea Level Pressure  
Sea Level Pressure 29.90 in    
Wind  
Wind Speed 6 mph ()    
Max Wind Speed 16 mph    
Max Gust Speed 22 mph    
Visibility 10.0 miles    
Events Thunderstorm    
T = Trace of Precipitation, MM = Missing Value Source: Averaged Metar Reports

Daily Weather History Graph

Daily Weather History Graph

Search for Another Location

Airport or City:

Astronomy

Aug. 22, 2019 Rise Set
Actual Time 6:17 AM EDT 7:44 PM EDT
Civil Twilight 5:48 AM EDT 8:12 PM EDT
Nautical Twilight 5:15 AM EDT 8:46 PM EDT
Astronomical Twilight 4:39 AM EDT 9:22 PM EDT
Moon 11:35 PM EDT (8/22) 12:48 PM EDT (8/22)
Length of Visible Light 14h 23m
Length of Day
13h 27m
Waning Gibbous, 60% of the Moon is Illuminated
Aug 22
Waning Gibbous
Aug 23
Last Quarter
Aug 30
New
Sep 5
First Quarter
Sep 14
Full

Hourly Weather History & Observations

Time (EDT) Temp. Heat Index Dew Point Humidity Pressure Visibility Wind Dir Wind Speed Gust Speed Precip Events Conditions
12:54 AM 78.1 °F - 73.0 °F 84% 29.90 in 10.0 mi Calm Calm - N/A   Clear
1:54 AM 75.9 °F - 73.0 °F 91% 29.88 in 10.0 mi SSW 5.8 mph - N/A   Mostly Cloudy
2:54 AM 77.0 °F - 73.0 °F 88% 29.86 in 10.0 mi SW 5.8 mph - N/A   Overcast
3:54 AM 78.1 °F - 73.0 °F 84% 29.86 in 10.0 mi SW 9.2 mph - N/A   Scattered Clouds
4:54 AM 78.1 °F - 73.0 °F 84% 29.86 in 10.0 mi WSW 6.9 mph - N/A   Partly Cloudy
5:54 AM 77.0 °F - 73.0 °F 88% 29.88 in 10.0 mi WSW 5.8 mph - N/A   Clear
6:54 AM 77.0 °F - 73.0 °F 88% 29.89 in 10.0 mi West 8.1 mph - N/A   Clear
7:54 AM 80.1 °F 84.2 °F 73.0 °F 79% 29.91 in 10.0 mi West 8.1 mph - N/A   Clear
8:54 AM 82.0 °F 85.9 °F 70.0 °F 67% 29.92 in 10.0 mi West 12.7 mph - N/A   Clear
9:54 AM 84.9 °F 88.8 °F 69.1 °F 59% 29.93 in 10.0 mi NW 9.2 mph - N/A   Clear
10:54 AM 87.1 °F 91.3 °F 69.1 °F 55% 29.93 in 10.0 mi WNW 9.2 mph - N/A   Clear
11:54 AM 88.0 °F 92.1 °F 69.1 °F 53% 29.92 in - North - - N/A   Partly Cloudy
12:54 PM 90.0 °F 94.5 °F 69.1 °F 50% 29.91 in 10.0 mi North - - N/A   Mostly Cloudy
1:54 PM 89.1 °F 92.1 °F 66.9 °F 48% 29.92 in 10.0 mi North - - N/A   Mostly Cloudy
2:54 PM 90.0 °F 92.8 °F 66.9 °F 46% 29.90 in 10.0 mi WNW 8.1 mph - N/A   Scattered Clouds
3:54 PM 93.0 °F 96.4 °F 66.9 °F 42% 29.88 in 10.0 mi West 11.5 mph 18.4 mph N/A   Scattered Clouds
4:54 PM 90.0 °F 92.8 °F 66.9 °F 46% 29.87 in 10.0 mi Variable 4.6 mph - N/A   Clear
5:54 PM 88.0 °F 93.8 °F 71.1 °F 57% 29.87 in 10.0 mi SSW 10.4 mph - N/A   Clear
6:54 PM 84.9 °F 90.7 °F 72.0 °F 65% 29.88 in 10.0 mi South 10.4 mph - N/A   Clear
7:54 PM 82.9 °F 88.0 °F 72.0 °F 69% 29.89 in 10.0 mi South 6.9 mph - N/A   Clear
8:54 PM 82.0 °F 86.7 °F 72.0 °F 71% 29.91 in 10.0 mi SSW 6.9 mph - N/A   Clear
9:54 PM 80.1 °F 83.8 °F 72.0 °F 76% 29.91 in 10.0 mi SSW 5.8 mph - N/A   Clear
10:54 PM 81.0 °F 84.9 °F 71.1 °F 72% 29.92 in 10.0 mi SW 6.9 mph - N/A   Clear
11:51 PM 82.4 °F 87.2 °F 71.6 °F 70% 29.92 in 10.0 mi WSW 8.1 mph - N/A Thunderstorm Overcast
11:54 PM 82.0 °F 86.3 °F 71.1 °F 69% 29.93 in 10.0 mi WSW 5.8 mph - N/A Thunderstorm Overcast